Regional Weather Roundup
Issued by NWS Northern Indiana

Home | Current Version | Previous Version | Graphics & Text | Print | Product List | Glossary On
Versions: 1 2 3 4 5 6 7 8 9 10 11 12 13 14 15 16 17 18 19 20 21 22 23 24 25 26 27 28 29 30 31 32 33 34 35 36 37 38 39 40 41 42 43 44 45 46 47 48 49 50
000
ASUS43 KIWX 212000
RWRIWX

KIWX WEATHER ROUNDUP
NATIONAL WEATHER SERVICE NORTHERN INDIANA
300 PM EST TUE FEB 21 2017

NOTE: "FAIR" INDICATES FEW OR NO CLOUDS BELOW 12,000 FEET WITH NO
SIGNIFICANT WEATHER AND/OR OBSTRUCTIONS TO VISIBILITY.

* THESE STATIONS ARE NOT UNDER NWS QUALITY CONTROL. THEY ALSO MAY NOT
  REPORT WEATHER SUCH AS PRECIPITATION OR FOG.

INZ001>027-212100-
NORTHERN INDIANA

CITY           SKY/WX    TMP DP  RH WIND       PRES   REMARKS
GARY*          PTSUNNY   68  68 100 SW5       29.91F
MICHIGAN CITY* MOSUNNY   64  54  68 S8        29.92F
LAPORTE*       MOSUNNY   62  54  73 SW6       29.93F
KNOX*          PTSUNNY   61  34  36 W6        29.92F
SOUTH BEND     PTSUNNY   61  53  75 SW8       29.93F
GOSHEN         CLOUDY    61  51  70 W5        29.91F
WARSAW*        CLOUDY    59  50  72 CALM      29.92F
ANGOLA*        CLOUDY    57  54  88 CALM      29.92F
FORT WAYNE     CLOUDY    61  49  64 W3        29.94S
PERU/GRISSOM   MOSUNNY   60  52  75 SW3       29.93F

$$
INZ028>050-212100-
CENTRAL INDIANA

CITY           SKY/WX    TMP DP  RH WIND       PRES   REMARKS
LAFAYETTE      CLOUDY    60  51  72 W3        29.92F
KOKOMO*        CLOUDY    61  50  67 SW3       29.94F
MUNCIE*        CLOUDY    65  47  52 SW8       29.94F
INDIANAPOLIS   CLOUDY    65  47  52 CALM      29.92F

$$
MIZ043>046-050>051-056>058-064>065-071>073-077>080-212100-
SOUTHWEST LOWER MICHIGAN

CITY           SKY/WX    TMP DP  RH WIND       PRES   REMARKS
BATTLE CREEK   CLOUDY    64  53  67 W14       29.91F
BENTON HARBOR  CLOUDY    54  50  86 W6        29.92F FOG
COLDWATER*     CLOUDY    59  52  76 SW9       29.92F
HILLSDALE*     CLOUDY    57  50  77 SW5       29.91F
HOLLAND        CLOUDY    53  49  86 W5        29.92S
GRAND RAPIDS   CLOUDY    55  51  86 SW8       29.91S FOG
KALAMAZOO      CLOUDY    63  50  62 W10       29.92F
STURGIS*       CLOUDY    58  53  82 W5        29.92S
THREE RIVERS*  FAIR      61  53  74 SW8       29.93S

$$
OHZ001>008-015>018-024>025-212100-
NORTHWEST OHIO

CITY           SKY/WX    TMP DP  RH WIND       PRES   REMARKS
DEFIANCE       CLOUDY    56  48  74 S6        29.94F
FINDLAY        MOSUNNY   63  46  54 S6        29.93F
TOLEDO EXPRESS CLOUDY    56  50  80 CALM      29.92F
TOLEDO METCALF CLOUDY    58  51  78 CALM      29.92F
LIMA           CLOUDY    63  49  60 SW8       29.94F

$$
AND FOR LAKE MICHIGAN COASTAL AND OPEN LAKE BUOY OBSERVATIONS

STATION/POSITION TEMP    WIND        PRES    VSBY  WAVE
                 AIR SEA DIR/SP/G                  HT/PER
                 (F)     (DEG/KT/KT) (MB)    (MI)  (FT/S)
CALUMET HARBOR    63     220/  4/  7 1012.3F
MICHIGAN CITY     51     250/  3/  3   N/A
BURNS HARBOR      63     180/  8/ 11 1013.5F

$$
&&



USA.gov is the U.S. government's official web portal to all federal, state and local government web resources and services.